Content
SEND FEEDBACK

Daily
Averages
Monthly
Summary
United States of America

PATCHOGUE, NEW YORK


Home > North America > United States > New York
Elevation: 1 meter     Latitude: 40 45N     Longitude: 073 00W

WEATHER
 
SELECT A DAY
Number of Records: 159,908;   Date Range: 9/29/99 - 10/22/14
 
SHARE

PRINT THIS DATA

[ ← Previous Day ]
WEATHER ALMANAC - 23 JANUARY, 2013
[ Next Day → ]
[ °F ]   °C
Weather ElementAverageHighLow
Temperature-9.5 °C-7.2 °C (2:56 pm)-12.2 °C (6:56 am)
Dewpoint-19.4 °C-18.3 °C (2:56 pm)-21.1 °C (1:56 am)
Humidity45.6 %58 % (6:56 am)39 % (7:56 pm)
Barometer1022.4 hPa1023.7 hPa (8:56 am)1021.3 hPa (1:56 pm)
Wind Speed14.8 km/h29.6 km/h (11:56 am)
Wind Gust48.1 km/h (12:56 pm)
Weather ElementAverage
Visibility16.1 km
Wind DirectionWNW (282.7 °)

Weather ElementTotal
Precipitation---
Heating Degree Days28.1 (Base 18.3)
Averaged from 22 records on 23 January, 2013
WEATHER CONDITIONS BREAKOUT
WIND DIRECTION BREAKOUT
WEATHER BY HOUR - 23 JANUARY, 2013
[ °F ]   °C
Local TimeTemperatureDewpointHumidityBarometerVisibilityWind DirectionWind SpeedGust SpeedPrecipitationEventsConditions
1:56 AM-10.6 °C-21.1 °C43 %1022 hPa16.1 kmNW (310°)20.4 km/hClear
2:56 AM-10.6 °C-20 °C47 %1022.7 hPa16.1 kmWNW (290°)16.7 km/hClear
3:56 AM-11.1 °C-19.4 °C51 %1022.4 hPa16.1 kmWest (280°)9.3 km/hClear
4:56 AM-11.7 °C-18.9 °C56 %1022.4 hPa16.1 kmWest (270°)9.3 km/hPartly Cloudy
5:56 AM-11.7 °C-18.9 °C56 %1022.7 hPa16.1 kmWest (280°)9.3 km/hClear
6:56 AM-12.2 °C-18.9 °C58 %1023.4 hPa16.1 kmWest (270°)9.3 km/hScattered Clouds
7:56 AM-11.7 °C-18.9 °C56 %1023.4 hPa16.1 kmWest (280°)5.6 km/hClear
8:56 AM-10 °C-19.4 °C47 %1023.7 hPa16.1 kmWNW (300°)25.9 km/h37 km/hScattered Clouds
10:56 AM-8.9 °C-19.4 °C43 %1023.7 hPa16.1 kmWNW (290°)14.8 km/h38.9 km/hPartly Cloudy
11:56 AM-8.3 °C-19.4 °C41 %1022.4 hPa16.1 kmWNW (300°)29.6 km/h38.9 km/hScattered Clouds
12:56 PM-7.8 °C-19.4 °C40 %1021.7 hPa16.1 kmWNW (300°)27.8 km/h48.1 km/hMostly Cloudy
1:56 PM-7.8 °C-19.4 °C40 %1021.3 hPa16.1 kmWNW (290°)24.1 km/h40.7 km/hMostly Cloudy
2:56 PM-7.2 °C-18.3 °C42 %1021.3 hPa16.1 kmNW (310°)22.2 km/h35.2 km/hMostly Cloudy
3:56 PM-7.8 °C-18.9 °C41 %1021.3 hPa16.1 kmNW (310°)18.5 km/h31.5 km/hMostly Cloudy
4:56 PM-7.8 °C-18.9 °C41 %1021.7 hPa16.1 kmNW (310°)11.1 km/hOvercast
5:56 PM-7.8 °C-18.9 °C41 %1022 hPa16.1 kmWNW (290°)14.8 km/hOvercast
6:56 PM-8.3 °C-19.4 °C41 %1022.4 hPa16.1 kmWNW (300°)13 km/hMostly Cloudy
7:56 PM-8.3 °C-20 °C39 %1022.4 hPa16.1 kmNW (310°)13 km/hMostly Cloudy
8:56 PM-8.9 °C-20.6 °C39 %1022.4 hPa16.1 kmNW (310°)13 km/hScattered Clouds
9:56 PM-9.4 °C-20 °C43 %1022.4 hPa16.1 kmNW (320°)11.1 km/hClear
10:56 PM-10.6 °C-20 °C47 %1022.7 hPa16.1 kmWNW (300°)5.6 km/hClear
11:56 PM-10.6 °C-18.9 °C51 %1022.7 hPa16.1 kmCalmClear
Hourly data recorded from KHWV, located 0 kilometers away from Patchogue, New York







STORIES FROM OUR PARTNERS